Flag for U.S.A. Weather past 2 weeks in Oxnard, California, U.S.A.

Now
62 °F

Clear.


Feels Like: 62 °F
Forecast: 62 / 75 °F
Wind: No wind

Location: Oxnard Airport

Current Time: Jul 23, 2014 at 6:02:41 AM

Latest Report: Jul 23, 2014 at 4:51 AM


Visibility: 9 mi

Pressure: 29.98 "Hg

Humidity: 83%

Dew point: 57 °F

Location of OxnardLocation

Historic Weather in Oxnard — Graph

°F

Oxnard temperature yesterday

Maximum temperature yesterday: 74 °F (at 4:51 PM)
Minimum temperature yesterday: 61 °F (at 5:51 AM)
Average temperature yesterday: 67 °F

Past Weeks' High & Low Weather Summary

 TemperatureHumidityPressure
High76 °F (Jul 21, 12:51 PM)91% (Jul 22, 12:51 AM)30.07 "Hg (Jul 22, 12:51 AM)
Low60 °F (Jul 12, 5:51 AM)54% (Jul 21, 1:51 PM)29.84 "Hg (Jul 13, 6:51 PM)
Average68 °F77%29.97 "Hg
* Reported Jul 8 4:51 AM — Jul 23 4:51 AM, Oxnard, Weather by CustomWeather, © 2014

Note: Actual official high and low records may vary slightly from our data, if they occured in-between our weather recording intervals... More about our weather records

Advertising

Oxnard weather history for previous 24 hours

 ConditionsComfort  
Time TempWeatherWind HumidityBarometerVisibility
4:51 AM
Jul 23
62 °FClear.No wind83%29.98 "Hg9 mi
3:51 AM63 °FClear.No wind81%29.98 "Hg10 mi
2:51 AM63 °FClear.No wind84%29.98 "Hg10 mi
1:51 AM63 °FClear.No wind84%29.99 "Hg10 mi
12:51 AM64 °FClear.No wind87%30.00 "Hg10 mi
10:51 PM
Jul 22
66 °FClear.6 mph81%30.01 "Hg10 mi
9:51 PM67 °FClear.8 mph79%30.01 "Hg10 mi
8:51 PM67 °FSunny.12 mph81%30.00 "Hg10 mi
7:51 PM69 °FSunny.13 mph73%30.00 "Hg10 mi
6:51 PM71 °FSunny.18 mph68%30.00 "Hg10 mi
5:51 PM73 °FSunny.17 mph62%30.00 "Hg10 mi
4:51 PM74 °FSunny.18 mph60%30.01 "Hg10 mi
9:51 AM71 °FSunny.13 mph73%30.06 "Hg10 mi
8:51 AM69 °FPassing clouds.7 mph76%30.05 "Hg10 mi
8:02 AM68 °FScattered clouds.No wind78%30.04 "Hg10 mi
7:51 AM67 °FPartly sunny.3 mph81%30.04 "Hg10 mi
6:51 AM63 °FPassing clouds.No wind84%30.03 "Hg10 mi
Weather by CustomWeather, © 2014

See weather overviewHow to use our weather pages